Regional Weather Roundup
Issued by NWS

Home | Current Version | Previous Version | Text Only | Print | Product List | Glossary Off
Versions: 1 2 3 4 5 6 7 8 9 10 11 12 13 14 15 16 17 18 19 20 21 22 23 24 25 26 27 28 29 30 31 32 33 34 35 36 37 38 39 40 41 42 43 44 45 46 47 48 49 50

000
ASUS43 KIND 161859
RWRIN

WEATHER ROUNDUP FOR INDIANA
NATIONAL WEATHER SERVICE INDIANAPOLIS IN
300 PM EDT TUE SEP 16 2014

NOTE: "FAIR" INDICATES FEW OR NO CLOUDS BELOW 12,000 FEET WITH NO
SIGNIFICANT WEATHER AND/OR OBSTRUCTIONS TO VISIBILITY.

* - STATION DOES NOT REPORT WEATHER SUCH AS PRECIPITATION OR FOG.

+ - STATION NOT QUALITY CONTROLLED BY THE NATIONAL WEATHER SERVICE.
    USE DATA WITH CAUTION...ESPECIALLY DEWPOINT AND RELATIVE
    HUMIDITY OBSERVATIONS.

INZ001>003-010>013-019-020-162000-
NORTHWEST INDIANA

CITY           SKY/WX    TMP DP  RH WIND       PRES   REMARKS
GARY /AIRPORT/ MOSUNNY   66  45  45 NE9       30.17F
KNOX *+        PTSUNNY   65  45  49 NW6       30.15F
RENSSELAER +   PTSUNNY   63  46  55 CALM      30.16F
VALPARAISO     MOSUNNY   63  47  55 N6        30.16F

$$

LMZ046-743>745-162000-
SOUTHERN LAKE MICHIGAN

STATION/POSITION TIME  TEMP WIND        PRES
                       AIR  DIR/SP/G
                 (UTC) (F)  (DEG/KT/KT) (MB)
MICHIGAN CITY    1800   60  280/  9/ 10   N/A

$$

INZ004-005-014>016-021>024-162000-
NORTH CENTRAL INDIANA

CITY           SKY/WX    TMP DP  RH WIND       PRES   REMARKS
ELKHART        MOSUNNY   64  45  48 NW6       30.15F
GOSHEN         PTSUNNY   65  46  50 SW7       30.14F
SOUTH BEND     NOT AVBL
WARSAW +       SUNNY     64  43  45 NW5       30.15F

$$

INZ006>009-017-018-025>027-162000-
NORTHEAST INDIANA

CITY           SKY/WX    TMP DP  RH WIND       PRES   REMARKS
ANGOLA *+      SUNNY     66  43  42 CALM      30.13F
FORT WAYNE     MOSUNNY   63  45  51 CALM      30.15F

$$

INZ028-029-035-036-043>045-051>053-162000-
WEST CENTRAL INDIANA

CITY           SKY/WX    TMP DP  RH WIND       PRES   REMARKS
GREENCASTLE +  PTSUNNY   63  50  63 CALM      30.16F
LAFAYETTE      MOSUNNY   64  47  53 CALM      30.16F
TERRE HAUTE    CLOUDY    62  50  64 W5        30.17F

$$

INZ030>032-037>040-046>048-054>057-064-065-162000-
CENTRAL INDIANA

CITY           SKY/WX    TMP DP  RH WIND       PRES   REMARKS
ANDERSON       CLOUDY    59  48  67 NW9       30.17F
COLUMBUS       CLOUDY    57  52  82 N5        30.17F
FRANKFORT +    MOSUNNY   66  49  53 NW6       30.17F
INDIANAPOLIS   PTSUNNY   61  49  64 CALM      30.15F
-EAGLE CREEK   CLOUDY    63  46  54 N3        30.15F
KOKOMO *+      SUNNY     64  43  45 N3        30.15F
MT COMFORT *+  CLOUDY    61  46  59 E3        30.16F
SHELBYVILLE    CLOUDY    62  49  62 CALM      30.16F
ZIONSVILLE +   PTSUNNY   63  48  58 N5        30.16F

$$

INZ033-034-041-042-049-050-058-059-162000-
EAST CENTRAL INDIANA

CITY           SKY/WX    TMP DP  RH WIND       PRES   REMARKS
MUNCIE         CLOUDY    61  48  62 NW5       30.15F

$$

INZ060-061-067>069-081>083-085>088-162000-
SOUTHWEST INDIANA

CITY           SKY/WX    TMP DP  RH WIND       PRES   REMARKS
EVANSVILLE     CLOUDY    65  53  65 N8        30.15F

$$

INZ062-063-066-070>080-084-089>092-162000-
SOUTH CENTRAL AND SOUTHEAST INDIANA

CITY           SKY/WX    TMP DP  RH WIND       PRES   REMARKS
BLOOMINGTON    CLOUDY    60  49  66 NE6       30.16F
SEYMOUR +      CLOUDY    61  52  72 N9        30.16

$$



USA.gov is the U.S. government's official web portal to all federal, state and local government web resources and services.